Weather in Abu Simbel

Egypt     22°22′27″N   31°36′18″E
temp.,
°C
wind,
m/s
gust,
m/s
humid.,
%
clouds,
%
prec.,
mm/h
press.,
hPa
HPBL,
m
20 september, mon
mon2023:00+28nnw44292 0.0 101028
02:00+26n333216 0.0 101013
05:00+25n22355 0.0 101011
08:00+29n22274 0.0 1011168
11:00+33ne11235 0.0 1010812
14:00+34se11205 0.0 10071185
17:00+34se112195 0.0 100772
20:00+31wnw22224 0.0 100811
21 september, tue
tue2123:00+30nnw44235 0.0 100827
02:00+28n33255 0.0 100713
05:00+27nne33260 0.0 100811
08:00+31n23215 0.0 1010151
11:00+35ne23177 0.0 1009761
14:00+37e121889 0.0 10061365
17:00+37nw12207 0.0 100537
20:00+33nnw44225 0.0 100729
22 september, wed
wed2223:00+31n46255 0.0 100748
02:00+29n46285 0.0 100759
05:00+28n44305 0.0 100831
08:00+31n56260 0.0 1009200
11:00+36n55200 0.0 1008788
14:00+38nnw55173 0.0 10051684
17:00+36nw68185 0.0 1005376
20:00+32nnw69220 0.0 100778
23 september, thu
thu2323:00+30nnw814220 0.0 1007159
02:00+28n612280 0.0 1007166
05:00+26nne47341 0.0 100887
08:00+29nne57300 0.0 1010303
11:00+35nne67190 0.0 10081286
14:00+36ne34180 0.0 10061561
17:00+36nnw57180 0.0 1006243
20:00+31nnw58240 0.0 100774
24 september, fri
fri2423:00+29n610290 0.0 1009124
02:00+28nne57350 0.0 100988
05:00+26ne44410 0.0 101046
08:00+29ne69330 0.0 1011380
11:00+34ne67240 0.0 10101114
14:00+36nne56200 0.0 10071868
17:00+35n68220 0.0 1007415
20:00+31n713290 0.0 1008170